| time (UTC) | temp F | wind direction | speed MPH | gust MPH | rain 1hr in | rain 24hr in | rain mn in | humidity % | barometer mb |
| 20260510185317 | 62 | 248 | 3.0 | 11.0 | 0.00 | 0.16 | 0.13 | 70 | 1010.9 |
| 20260510183812 | 61 | 344 | 4.0 | 10.0 | 0.00 | 0.17 | 0.13 | 70 | 1010.9 |
| 20260510182310 | 60 | 117 | 3.0 | 13.0 | 0.00 | 0.17 | 0.13 | 77 | 1011.0 |
| 20260510180814 | 59 | 82 | 3.0 | 10.0 | 0.00 | 0.17 | 0.13 | 78 | 1010.8 |
| 20260510175310 | 60 | 194 | 1.0 | 9.0 | 0.00 | 0.18 | 0.13 | 76 | 1010.9 |
| 20260510173812 | 60 | 285 | 4.0 | 13.0 | 0.00 | 0.18 | 0.13 | 76 | 1010.8 |
| 20260510172310 | 61 | 290 | 2.0 | 9.0 | 0.01 | 0.19 | 0.13 | 82 | 1010.9 |
| 20260510170813 | 59 | 66 | 3.0 | 12.0 | 0.03 | 0.19 | 0.13 | 80 | 1010.8 |
| 20260510165309 | 57 | 164 | 1.0 | 14.0 | 0.05 | 0.19 | 0.13 | 89 | 1010.7 |
| 20260510163808 | 54 | 81 | 1.0 | 9.0 | 0.06 | 0.20 | 0.13 | 95 | 1010.8 |
| 20260510162309 | 53 | 86 | 1.0 | 6.0 | 0.05 | 0.20 | 0.12 | 90 | 1011.0 |
| 20260510160809 | 53 | 40 | 1.0 | 5.0 | 0.05 | 0.18 | 0.10 | 92 | 1010.9 |
| 20260510155308 | 53 | 121 | 1.0 | 7.0 | 0.08 | 0.16 | 0.08 | 92 | 1010.8 |
| 20260510153809 | 54 | 45 | 0.0 | 0.0 | 0.07 | 0.15 | 0.08 | 95 | 1010.6 |
| 20260510153041 | 54 | 45 | 0.0 | 3.0 | 0.07 | 0.15 | 0.07 | 93 | 1010.6 |
| 20260510152427 | 55 | 77 | 0.0 | 6.0 | 0.05 | 0.14 | 0.05 | 91 | 1010.7 |
| 20260510145309 | 55 | 187 | 1.0 | 6.0 | 0.00 | 0.09 | 0.00 | 86 | 1010.4 |
| 20260510143803 | 55 | 192 | 0.0 | 7.0 | 0.00 | 0.09 | 0.00 | 85 | 1009.9 |
| 20260510143031 | 56 | 175 | 0.0 | 6.0 | 0.00 | 0.09 | 0.00 | 83 | 1010.0 |
| 20260510140800 | 58 | 195 | 1.0 | 10.0 | 0.00 | 0.09 | 0.00 | 82 | 1009.9 |
| 20260510135300 | 57 | 195 | 1.0 | 9.0 | 0.00 | 0.09 | 0.00 | 86 | 1010.0 |
| 20260510133801 | 56 | 175 | 3.0 | 9.0 | 0.00 | 0.09 | 0.00 | 86 | 1010.0 |
| 20260510132300 | 55 | 195 | 0.0 | 5.0 | 0.00 | 0.09 | 0.00 | 89 | 1010.2 |
| 20260510131535 | 55 | 344 | 0.0 | 8.0 | 0.00 | 0.09 | 0.00 | 89 | 1010.2 |
| 20260510125256 | 55 | 184 | 1.0 | 8.0 | 0.00 | 0.09 | 0.00 | 91 | 1009.7 |
| 20260510123755 | 52 | 143 | 0.0 | 3.0 | 0.00 | 0.09 | 0.00 | 94 | 1009.8 |
| 20260510122248 | 51 | 144 | 0.0 | 3.0 | 0.00 | 0.09 | 0.00 | 96 | 1010.2 |
| 20260510120749 | 51 | 119 | 0.0 | 3.0 | 0.00 | 0.09 | 0.00 | 97 | 1010.2 |
| 20260510115241 | 50 | 122 | 0.0 | 2.0 | 0.00 | 0.09 | 0.00 | 98 | 1010.3 |
| 20260510113743 | 49 | 129 | 0.0 | 2.0 | 0.00 | 0.09 | 0.00 | 99 | 1010.1 |
| 20260510112237 | 48 | 192 | 0.0 | 0.0 | 0.00 | 0.09 | 0.00 | 98 | 1009.8 |
| 20260510111509 | 48 | 192 | 0.0 | 6.0 | 0.00 | 0.09 | 0.00 | 99 | 1009.8 |
| 20260510105233 | 47 | 177 | 0.0 | 0.0 | 0.00 | 0.09 | 0.00 | 99 | 1009.3 |
| 20260510103732 | 46 | 113 | 0.0 | 0.0 | 0.00 | 0.09 | 0.00 | 98 | 1009.6 |
| 20260510103004 | 46 | 111 | 0.0 | 0.0 | 0.00 | 0.09 | 0.00 | 98 | 1009.2 |
| 20260510100732 | 46 | 111 | 0.0 | 0.0 | 0.00 | 0.09 | 0.00 | 98 | 1008.7 |
| 20260510095230 | 46 | 111 | 0.0 | 0.0 | 0.00 | 0.09 | 0.00 | 98 | 1008.7 |
| 20260510094458 | 45 | 111 | 0.0 | 0.0 | 0.00 | 0.09 | 0.00 | 98 | 1008.4 |
| 20260510092228 | 45 | 111 | 0.0 | 0.0 | 0.00 | 0.09 | 0.00 | 97 | 1008.2 |
| 20260510090726 | 45 | 111 | 0.0 | 0.0 | 0.00 | 0.09 | 0.00 | 97 | 1008.3 |
| 20260510085222 | 46 | 111 | 0.0 | 0.0 | 0.00 | 0.09 | 0.00 | 97 | 1008.0 |
| 20260510084453 | 46 | 111 | 0.0 | 0.0 | 0.00 | 0.09 | 0.00 | 97 | 1008.2 |
| 20260510082217 | 46 | 111 | 0.0 | 0.0 | 0.00 | 0.09 | 0.00 | 97 | 1008.7 |
| 20260510080718 | 46 | 111 | 0.0 | 0.0 | 0.00 | 0.09 | 0.00 | 97 | 1009.1 |
| 20260510075216 | 46 | 111 | 0.0 | 0.0 | 0.00 | 0.09 | 0.00 | 97 | 1008.8 |
| 20260510074446 | 46 | 111 | 0.0 | 0.0 | 0.00 | 0.09 | 0.00 | 97 | 1008.7 |
| 20260510072210 | 46 | 111 | 0.0 | 0.0 | 0.00 | 0.09 | 0.00 | 97 | 1008.6 |
| 20260510070709 | 46 | 111 | 0.0 | 0.0 | 0.00 | 0.09 | 0.00 | 97 | 1008.5 |
| 20260510065209 | 46 | 111 | 0.0 | 0.0 | 0.00 | 0.09 | 0.00 | 97 | 1008.8 |
| 20260510063709 | 47 | 111 | 0.0 | 0.0 | 0.00 | 0.09 | 0.00 | 97 | 1008.9 |
| 20260510062209 | 47 | 111 | 0.0 | 0.0 | 0.00 | 0.09 | 0.00 | 97 | 1008.7 |
| 20260510060705 | 47 | 111 | 0.0 | 0.0 | 0.00 | 0.09 | 0.00 | 97 | 1008.8 |
| 20260510055203 | 47 | 111 | 0.0 | 0.0 | 0.00 | 0.09 | 0.00 | 97 | 1008.7 |
| 20260510053703 | 47 | 111 | 0.0 | 6.0 | 0.00 | 0.09 | 0.00 | 97 | 1008.9 |
| 20260510052205 | 47 | 181 | 0.0 | 2.0 | 0.00 | 0.09 | 0.00 | 97 | 1008.9 |
| 20260510050657 | 47 | 183 | 0.0 | 2.0 | 0.00 | 0.09 | 0.00 | 97 | 1008.8 |
| 20260510045929 | 47 | 123 | 0.0 | 6.0 | 0.00 | 0.09 | 0.00 | 97 | 1009.1 |
| 20260510043652 | 47 | 183 | 0.0 | 2.0 | 0.00 | 0.09 | 0.00 | 98 | 1009.3 |
| 20260510042922 | 46 | 189 | 0.0 | 2.0 | 0.00 | 0.09 | 0.00 | 97 | 1009.0 |
| 20260510040644 | 46 | 189 | 0.0 | 3.0 | 0.00 | 0.09 | 0.00 | 97 | 1009.0 |
| 20260510035145 | 46 | 185 | 0.0 | 0.0 | 0.00 | 0.09 | 0.09 | 97 | 1009.3 |
| 20260510033637 | 46 | 185 | 0.0 | 0.0 | 0.00 | 0.09 | 0.09 | 97 | 1009.3 |
| 20260510032907 | 46 | 185 | 0.0 | 0.0 | 0.00 | 0.09 | 0.09 | 97 | 1009.3 |
| 20260510030636 | 46 | 185 | 0.0 | 0.0 | 0.00 | 0.09 | 0.09 | 97 | 1009.4 |
| 20260510025137 | 46 | 185 | 0.0 | 0.0 | 0.00 | 0.09 | 0.09 | 97 | 1009.6 |
| 20260510023637 | 46 | 185 | 0.0 | 2.0 | 0.00 | 0.09 | 0.09 | 97 | 1009.7 |
| 20260510022136 | 46 | 185 | 0.0 | 4.0 | 0.00 | 0.09 | 0.09 | 97 | 1009.8 |
| 20260510020636 | 46 | 196 | 0.0 | 0.0 | 0.00 | 0.09 | 0.09 | 97 | 1009.8 |
| 20260510015133 | 46 | 196 | 0.0 | 3.0 | 0.00 | 0.09 | 0.09 | 97 | 1009.9 |
| 20260510013632 | 46 | 198 | 0.0 | 2.0 | 0.00 | 0.09 | 0.09 | 97 | 1010.0 |
| 20260510012133 | 46 | 198 | 0.0 | 3.0 | 0.00 | 0.09 | 0.09 | 97 | 1010.0 |
| 20260510010631 | 46 | 196 | 0.0 | 3.0 | 0.00 | 0.09 | 0.09 | 96 | 1009.9 |
| 20260510005129 | 46 | 195 | 1.0 | 4.0 | 0.00 | 0.09 | 0.09 | 96 | 1009.9 |
| 20260510003628 | 46 | 189 | 0.0 | 4.0 | 0.00 | 0.09 | 0.09 | 96 | 1009.9 |
| 20260510002128 | 46 | 188 | 0.0 | 4.0 | 0.00 | 0.09 | 0.09 | 96 | 1009.7 |
| 20260510001358 | 46 | 190 | 0.0 | 3.0 | 0.00 | 0.09 | 0.09 | 96 | 1009.4 |
| 20260509235127 | 47 | 192 | 1.0 | 4.0 | 0.00 | 0.09 | 0.09 | 96 | 1009.1 |
| 20260509233628 | 47 | 186 | 0.0 | 4.0 | 0.00 | 0.09 | 0.09 | 96 | 1009.1 |
| 20260509232127 | 47 | 186 | 0.0 | 4.0 | 0.00 | 0.09 | 0.09 | 96 | 1009.1 |
| 20260509230624 | 47 | 184 | 0.0 | 4.0 | 0.00 | 0.09 | 0.09 | 96 | 1009.0 |
| 20260509225124 | 47 | 184 | 0.0 | 5.0 | 0.00 | 0.09 | 0.09 | 96 | 1009.1 |
| 20260509224355 | 47 | 182 | 1.0 | 4.0 | 0.00 | 0.09 | 0.09 | 95 | 1009.1 |
| 20260509222121 | 47 | 142 | 0.0 | 0.0 | 0.00 | 0.09 | 0.09 | 95 | 1009.1 |
| 20260509220623 | 47 | 142 | 0.0 | 4.0 | 0.00 | 0.09 | 0.09 | 95 | 1009.3 |
| 20260509215115 | 47 | 213 | 0.0 | 5.0 | 0.00 | 0.09 | 0.09 | 95 | 1009.4 |
| 20260509213616 | 47 | 187 | 1.0 | 6.0 | 0.01 | 0.09 | 0.09 | 95 | 1009.7 |
| 20260509213611 | 47 | 185 | 1.0 | 4.0 | 0.01 | 0.09 | 0.09 | 95 | 1009.9 |
| 20260509210612 | 47 | 182 | 0.0 | 4.0 | 0.01 | 0.09 | 0.09 | 95 | 1009.8 |
| 20260509205109 | 47 | 159 | 0.0 | 4.0 | 0.02 | 0.09 | 0.09 | 95 | 1009.8 |
| 20260509203609 | 47 | 156 | 0.0 | 2.0 | 0.01 | 0.08 | 0.08 | 95 | 1010.0 |
| 20260509202842 | 46 | 202 | 1.0 | 5.0 | 0.01 | 0.08 | 0.08 | 95 | 1010.0 |
| 20260509200608 | 46 | 169 | 1.0 | 4.0 | 0.02 | 0.08 | 0.08 | 95 | 1010.0 |
| 20260509195107 | 46 | 160 | 0.0 | 0.0 | 0.01 | 0.07 | 0.07 | 94 | 1010.2 |
| 20260509193605 | 46 | 160 | 0.0 | 2.0 | 0.02 | 0.07 | 0.07 | 94 | 1010.3 |
| 20260509192105 | 46 | 161 | 0.0 | 3.0 | 0.02 | 0.07 | 0.07 | 94 | 1010.4 |
| 20260509190604 | 46 | 194 | 0.0 | 4.0 | 0.01 | 0.06 | 0.06 | 93 | 1010.4 |